Regional Weather Roundup
Issued by NWS Sioux Falls, SD

Home | Current Version | Previous Version | Text Only | Print | Product List | Glossary On
Versions: 1 2 3 4 5 6 7 8 9 10 11 12 13 14 15 16 17 18 19 20 21 22 23 24 25 26 27 28 29 30 31 32 33 34 35 36 37 38 39 40 41 42 43 44 45 46 47 48 49 50
000
ASUS43 KFSD 200710
RWRFSD

WEATHER ROUNDUP FOR SE SOUTH DAKOTA/SW MINNESOTA/NW IOWA
NATIONAL WEATHER SERVICE SIOUX FALLS SD
200 AM CDT SUN AUG 20 2017

NOTE: "FAIR" INDICATES FEW OR NO CLOUDS BELOW 12,000 FEET WITH NO
SIGNIFICANT WEATHER AND OR OBSTRUCTIONS TO VISIBILITY.


SDZ038>040-050-052>070-200800-
SOUTHEAST SOUTH DAKOTA

CITY           SKY/WX    TMP DP  RH WIND       PRES   REMARKS
BROOKINGS      CLOUDY    67  64  90 S5        29.85R
CHAMBERLAIN    CLEAR     67  67 100 E5        29.83R
HURON          CLEAR     67  64  90 S7        29.83R
MADISON        FAIR      66  66 100 S8        29.85S
MITCHELL       CLOUDY    69  65  86 SE7       29.83R
SIOUX FALLS    CLOUDY    72  62  71 S8        29.84S
WINNER         FAIR      73  62  68 SW12      29.81R
YANKTON        CLOUDY    70  65  84 SE6       29.87R
$$

MNZ071-072-080-081-089-090-097-098-200800-
SOUTHWEST MINNESOTA

CITY           SKY/WX    TMP DP  RH WIND       PRES   REMARKS
FAIRMONT       CLOUDY    66  64  93 SE8       29.86F
JACKSON        CLOUDY    68  63  83 CALM      29.86F
LUVERNE        CLOUDY    64  63  94 CALM      29.85F
MARSHALL       CLOUDY    68  64  87 CALM      29.84R
MONTEVIDEO     PTCLDY    64  63  94 S6        29.83F
PIPESTONE      CLOUDY    68  64  88 S6        29.85F
REDWOOD FALLS  CLOUDY    66  63  90 SE6       29.83F
TRACY          CLOUDY    69  65  89 S9        29.84F
WINDOM         CLOUDY    70  63  78 SE5       29.85F
WORTHINGTON    CLOUDY    69  63  81 SE6       29.86F
$$

IAZ001>003-012>014-020>022-031-032-NEZ013-014-SDZ071-200800-
NORTHWEST IOWA

CITY           SKY/WX    TMP DP  RH WIND       PRES   REMARKS
CHEROKEE       CLOUDY    71  64  80 S13       29.85F
DENISON        LGT RAIN  68  64  88 SW7       29.99R
ESTHERVILLE    CLOUDY    66  66 100 S7        29.85F
LE MARS        CLOUDY   100 N/A N/A SE17G24   29.85F
ORANGE CITY    CLOUDY    77  63  61 S24G32    29.82S
SHELDON        CLOUDY    68  63  83 CALM      29.83R
SIOUX CITY     LGT RAIN  71  65  81 SE16      29.86R
SPENCER        CLOUDY    72  61  68 SE8       29.84F
STORM LAKE     CLOUDY    70  63  78 S12       29.89F
$$

ABBREVIATIONS USED IN REMARKS
   TC - TEMPERATURE IN CELSIUS
  WCI - WIND CHILL INDEX
   HX - HEAT INDEX
  VSB - VISIBILITY





USA.gov is the U.S. government's official web portal to all federal, state and local government web resources and services.